Карточка аэропорта UHSS

Внимание!
Информация на этой странице в стадии наполнения.
Если вы не увидели какой-то информации, или заметили неточность - пожалуйста сообщите нам!
Спасибо!
Команда RU-STAFF
Название аэропортаХомутово
Название аэропорта (англ.)Khomutovo
Превышение59 ft. (18 m.)
Координаты46°53.316', 142°43.020000000001'
Высота перехода1600m
Эшелон переходаQFE>=758mm: FL70; 758mm>QFE>=731mm: FL80; QFE<731mm: FL90
Коды ответчика6601-6627
Зона ОрВДХабаровск РПИ (UHHH)
Данные METARUHSS 211800Z 15003MPS 8000 -SHRA BKN005 OVC020CB 19/19 Q0997 R01/290060 RMK MT OBSC QFE746/0995
Проноз погоды (TAF)UHSS 211653Z 2118/2224 19003MPS 2500 -SHRA BR BKN002 BKN016CB TEMPO 2118/2124 0700 -TSRA FG FM220300 26003MPS 9999 BKN030CB
NOTAMshow/hide NOTAM
AWOS   TABLE

Информация о ВПП

ВПП Длина ВПП (м.) Покрытие Курс ВПП Частота ILS
013401Железобетон12109.5
193401Железобетон192111.7

Диспетчерские позиции

Позывной Наименование органа УВД Частота
UHSS_TWRЮжно-Сахалинск−Старт122.0
UHSS_R_APPЮжно-Сахалинск−Круг120.6



Спутниковое изображение